Regional Weather Roundup
Issued by NWS

Home | Current Version | Previous Version | Text Only | Print | Product List | Glossary On
Versions: 1 2 3 4 5 6 7 8 9 10 11 12 13 14 15 16 17 18 19 20 21 22 23 24 25 26 27 28 29 30 31 32 33 34 35 36 37 38 39 40 41 42 43 44 45 46 47 48 49 50
000
ASUS45 KREV 300010
RWRNV
NEVADA REGIONAL WEATHER ROUNDUP
NATIONAL WEATHER SERVICE RENO NV
500 PM PDT SAT AUG 29 2015

NOTE: "FAIR" INDICATES FEW OR NO CLOUDS BELOW 12,000 FEET WITH NO
SIGNIFICANT WEATHER AND/OR OBSTRUCTIONS TO VISIBILITY.

NVZ001-003-004-300100-
WESTERN NEVADA

CITY           SKY/WX    TMP DP  RH WIND       PRES   REMARKS
RENO           PTSUNNY   80  43  26 SW28G33   30.00S
6HR MIN TEMP:  80; 6HR MAX TEMP:  86;

CARSON CITY    FAIR      79  43  27 SW13G26   30.03S
MINDEN         CLOUDY    75  45  33 SW16      30.04S
SLIDE MTN        N/A     50  41  71 W38         N/A
PYRAMID LAKE     N/A     82 N/A N/A SW23        N/A
FALLON         PTSUNNY   89  39  17 W31G40    29.89F
6HR MIN TEMP:  86; 6HR MAX TEMP:  95;

LOVELOCK       PTSUNNY   86  44  23 W23G39    29.91S
6HR MIN TEMP:  86; 6HR MAX TEMP:  93;

HAWTHORNE      SUNNY     93  32  11 SW17G25   29.89F
$$

NVZ002-CAZ072-073-300100-
NORTHERN AND CENTRAL SIERRA

CITY           SKY/WX    TMP DP  RH WIND       PRES   REMARKS
S. LAKE TAHOE  MOSUNNY   70  46  42 S14G25    30.14S
6HR MIN TEMP:  70; 6HR MAX TEMP:  74;

TRUCKEE        MOSUNNY   70  41  35 SW16G35   30.14F
                   6HR MAX TEMP:  72;

SQUAW VLY 8000   N/A     55  39  54 SW30        N/A
SUSANVILLE     SUNNY     77  45  31 SW16G23   30.01S
BLUE CANYON    PTSUNNY   66  53  63 S16G22    30.16F
MAMMOTH LAKES  FAIR      73  34  23 NW22G30   30.22S
BRIDGEPORT     FAIR      73  39  29 S15G29    30.16F
$$

NVZ030-031-036-300100-
NORTHERN NEVADA

CITY           SKY/WX    TMP DP  RH WIND       PRES   REMARKS
ELKO           PTSUNNY   91  36  14 W17G23    29.91F
6HR MIN TEMP:  85; 6HR MAX TEMP:  92;

WINNEMUCCA     CLOUDY    86  40  19 SW17G28   29.92S
6HR MIN TEMP:  84; 6HR MAX TEMP:  91;

WENDOVER       PTSUNNY   95  41  15 SW15      29.87F
$$

NVZ035-037-300100-
CENTRAL NEVADA

CITY           SKY/WX    TMP DP  RH WIND       PRES   REMARKS
ELY            MOSUNNY   87  37  17 S21G36    30.07F
6HR MIN TEMP:  82; 6HR MAX TEMP:  89;

EUREKA           N/A     90  23   9 S20       30.00F
6HR MIN TEMP:  84; 6HR MAX TEMP:  93;

$$

NVZ013-014-300100-
SOUTH CENTRAL NEVADA

CITY           SKY/WX    TMP DP  RH WIND       PRES   REMARKS
TONOPAH        MOSUNNY   91  28  10 SW25      30.01F
6HR MIN TEMP:  85; 6HR MAX TEMP:  95;

$$

NVZ017-020-022-300100-
SOUTHERN NEVADA

CITY           SKY/WX    TMP DP  RH WIND       PRES   REMARKS
LAS VEGAS      MOSUNNY  105  43  12 SW17G23   29.76F
6HR MIN TEMP: 100; 6HR MAX TEMP: 107;

N. LAS VEGAS   SUNNY    105  44  12 SW17G24   29.78F
6HR MIN TEMP:  99; 6HR MAX TEMP: 107;

NELLIS AFB     SUNNY    106  46  13 W16G25    29.75F
6HR MIN TEMP: 100; 6HR MAX TEMP: 107;

HENDERSON      SUNNY    104  49  15 W15       29.84F
6HR MIN TEMP:  99; 6HR MAX TEMP: 106;

MERCURY        SUNNY     99  35  10 S21G29    29.89F
6HR MIN TEMP:  96; 6HR MAX TEMP: 102;

$$



USA.gov is the U.S. government's official web portal to all federal, state and local government web resources and services.